[[{"header":{"parameterUnit":"m.s-1","parameterCategory":1,"la1":30.2991,"la2":30.254,"lo1":-89.0895,"lo2":-89.0444,"dy":0.0017,"dx":0.0017,"nx":28,"ny":28,"refTime":"2024-12-06T09:00:00:Z","depth":0,"parameterNumber":2,"parameterNumberName":"U-component_of_WINDS"},"data":[0,0,0,0,0,0,0,0,0,0,0,0,0,0,0,0,0,0,0,0,0,0,0,0,0,0,0,0,0,0,0,0,0,0,0,0,0,0,0,0,0,0,0,0,0,0,0,0,0,0,0,0,0,0,0,0,0,0,-1.2045,-1.2045,0,-1.2103,-1.2104,-1.2104,-1.2069,-1.2068,-1.2066,-1.2064,-1.2126,-1.2129,-1.2132,0,0,0,0,0,0,0,0,0,0,0,0,0,-1.1903,-1.1906,-1.2045,-1.2045,-1.2046,-1.2103,-1.2104,-1.2105,-1.207,-1.2068,-1.2066,-1.2064,-1.2125,-1.2128,-1.2132,0,0,0,0,0,0,0,0,0,0,0,0,0,-1.1963,-1.1907,-1.2044,-1.2036,-1.2035,-1.2103,-1.2104,-1.2105,-1.207,-1.2068,-1.2065,-1.2063,-1.2123,-1.2128,-1.2133,-1.2213,0,0,-1.2147,-1.2149,0,0,0,0,0,0,0,0,-1.196,-1.1969,-1.2036,-1.2036,-1.2036,-1.2076,-1.2076,-1.2141,-1.2071,-1.2057,-1.2064,-1.2062,-1.2111,-1.2117,-1.2134,-1.2216,-1.2218,-1.2148,-1.2151,-1.2153,-1.2154,0,0,0,0,0,0,0,-1.1956,-1.1966,-1.2068,-1.2037,-1.2037,-1.2029,-1.2034,-1.2088,-1.2098,-1.2058,-1.2056,-1.2063,-1.2111,-1.2129,-1.2135,-1.2219,-1.2148,-1.2152,-1.2155,-1.2157,-1.2369,-1.2371,0,0,0,0,0,0,-1.1952,-1.1963,-1.2066,-1.2069,-1.1991,-1.2033,-1.204,-1.2066,-1.2097,-1.2099,-1.2065,-1.2061,-1.2122,-1.2129,-1.2137,-1.2232,-1.2153,-1.2157,-1.216,-1.2366,-1.2369,-1.2372,0,0,0,0,0,0,-1.1949,-1.1962,-1.2064,-1.2015,-1.2028,-1.2038,-1.2068,-1.2068,-1.2087,-1.2102,-1.2104,-1.2082,-1.212,-1.213,-1.2194,-1.2234,-1.2159,-1.2164,-1.2363,-1.2367,-1.2371,-1.2424,0,0,0,0,0,0,-1.1946,-1.1961,-1.1992,-1.2016,-1.203,-1.212,-1.2071,-1.2071,-1.2095,-1.209,-1.2118,-1.2121,-1.2119,-1.2187,-1.2199,-1.2239,-1.2167,-1.2359,-1.2365,-1.2369,-1.2419,-1.2429,-1.2439,0,0,0,0,0,-1.1941,-1.2005,-1.1993,-1.2006,-1.2069,-1.2122,-1.213,-1.2127,-1.2098,-1.2129,-1.2139,-1.212,-1.2227,-1.2194,-1.2207,-1.2249,-1.2357,-1.2363,-1.2369,-1.2414,-1.2427,-1.2438,0,0,0,0,0,0,-1.1986,-1.2008,-1.1996,-1.207,-1.2094,-1.2116,-1.2155,-1.2141,-1.2175,-1.2169,-1.2163,-1.217,-1.2237,-1.2249,-1.2211,-1.2328,-1.2287,-1.2297,-1.2317,-1.233,-1.234,-1.2336,-1.2171,0,0,0,0,0,-1.2004,-1.2045,-1.2062,-1.2126,-1.2139,-1.2145,-1.2168,-1.2163,-1.2188,-1.2199,-1.2213,-1.2239,-1.2278,-1.2305,-1.2342,-1.242,-1.2425,-1.2455,-1.2465,-1.2473,-1.2482,-1.2523,-1.2537,-1.2393,-1.2393,-1.2392,0,0,-1.2043,-1.206,-1.2087,-1.2136,-1.2154,-1.2197,-1.2154,-1.2202,-1.2233,-1.2206,-1.2267,-1.2279,-1.2307,-1.2378,-1.241,-1.239,-1.2522,-1.2481,-1.2487,-1.2491,-1.2531,-1.2545,-1.2557,-1.2397,-1.2396,-1.2395,0,0,-1.2135,-1.2152,-1.2207,-1.2226,-1.2254,-1.2257,-1.227,-1.2294,-1.2301,-1.2362,-1.2342,-1.2379,-1.2447,-1.2468,-1.2488,-1.2586,-1.257,-1.2598,-1.2651,-1.2691,-1.2703,-1.2713,-1.2748,-1.2761,-1.2606,-1.2606,-1.2606,0,-1.218,-1.2244,-1.2237,-1.2286,-1.2308,-1.2284,-1.234,-1.2358,-1.2397,-1.2413,-1.239,-1.2474,-1.2492,-1.2567,-1.2591,-1.2607,-1.2622,-1.2596,-1.2701,-1.2711,-1.2721,-1.2754,-1.2768,-1.2609,-1.2609,-1.2609,-1.2608,0,-1.2298,-1.2342,-1.2383,-1.242,-1.2447,-1.2499,-1.25,-1.2527,-1.2519,-1.2525,-1.2587,-1.2606,-1.2647,-1.2664,-1.2657,-1.2738,-1.2725,-1.2702,-1.2662,-1.2738,-1.2769,-1.2782,-1.2614,-1.2613,-1.2612,-1.2611,0,0,-1.2423,-1.2454,-1.2469,-1.2486,-1.2514,-1.2548,-1.2598,-1.2637,-1.2661,-1.2688,-1.273,-1.2787,-1.2765,-1.2787,-1.2782,-1.2818,-1.2895,-1.279,-1.2791,-1.281,-1.2985,-1.3003,-1.3018,-1.2883,-1.2886,-1.2887,-1.2983,0,-1.2517,-1.2605,-1.26,-1.2682,-1.2723,-1.27,-1.2743,-1.2765,-1.2771,-1.2807,-1.2813,-1.2854,-1.2822,-1.2835,-1.2869,-1.2878,-1.293,-1.2871,-1.2923,-1.2925,-1.2918,-1.3034,-1.3054,-1.3143,-1.2995,-1.2997,-1.2999,0,-1.264,-1.2671,-1.2757,-1.2778,-1.2795,-1.2834,-1.2869,-1.2903,-1.2927,-1.2929,-1.2952,-1.2941,-1.2991,-1.2948,-1.3018,-1.2978,-1.2998,-1.3006,-1.3009,-1.3015,-1.2967,-1.3044,-1.3171,-1.3185,-1.3018,-1.3016,-1.3015,0,-1.2723,-1.2785,-1.2845,-1.286,-1.2886,-1.2914,-1.2926,-1.2947,-1.2971,-1.3001,-1.3016,-1.3051,-1.3071,-1.3099,-1.3097,-1.3066,-1.3167,-1.3125,-1.3171,-1.3171,-1.3194,-1.3193,-1.3328,-1.3206,-1.3206,-1.3206,-1.3205,0,-1.283,-1.2884,-1.2882,-1.2919,-1.2979,-1.2971,-1.303,-1.3039,-1.3058,-1.3096,-1.3078,-1.3114,-1.3109,-1.3145,-1.3144,-1.3202,-1.3211,-1.3214,-1.3213,-1.3216,-1.3216,-1.323,-1.3225,-1.3209,-1.3208,-1.3208,-1.3207,0,-1.2934,-1.2935,-1.2998,-1.3017,-1.3023,-1.3066,-1.3082,-1.3116,-1.312,-1.3168,-1.3179,-1.3185,-1.3226,-1.3227,-1.3275,-1.3274,-1.3344,-1.3336,-1.3336,-1.3335,-1.3381,-1.3377,-1.3531,-1.355,-1.3415,-1.3416,-1.3417,0,-1.3003,-1.3043,-1.3066,-1.309,-1.3104,-1.3142,-1.3166,-1.3159,-1.3184,-1.3214,-1.3245,-1.3284,-1.3316,-1.3383,-1.3392,-1.3428,-1.3421,-1.3472,-1.3426,-1.3427,-1.3422,-1.342,-1.3424,-1.3481,-1.3483,-1.3484,-1.3485,0,-1.3125,-1.3123,-1.3157,-1.3191,-1.3219,-1.3246,-1.3271,-1.3291,-1.3288,-1.3316,-1.3358,-1.3382,-1.343,-1.347,-1.3504,-1.3516,-1.3501,-1.3499,-1.3512,-1.3516,-1.3514,-1.3516,-1.3361,-1.3496,-1.3495,-1.3494,-1.3493,-1.3493,-1.3214,-1.3248,-1.327,-1.3308,-1.3325,-1.3348,-1.3382,-1.3389,-1.3423,-1.3462,-1.3456,-1.3502,-1.3524,-1.3568,-1.3583,-1.3619,-1.3602,-1.362,-1.3625,-1.363,-1.3635,-1.3507,-1.3626,-1.3625,-1.3625,-1.3625,-1.3625,0,-1.3335,-1.3347,-1.3382,-1.3417,-1.3447,-1.3428,-1.3454,-1.348,-1.3521,-1.3542,-1.3573,-1.3621,-1.3658,-1.3669,-1.3705,-1.3732,-1.3726,-1.3742,-1.3741,-1.3744,-1.3649,-1.3634,-1.3747,-1.3747,-1.3747,-1.3747,-1.3747,-1.3747,-1.3402,-1.346,-1.346,-1.3527,-1.3538,-1.3583,-1.36,-1.362,-1.3637,-1.3691,-1.3722,-1.3728,-1.3745,-1.3782,-1.3816,-1.3818,-1.3832,-1.3852,-1.3851,-1.3763,-1.375,-1.3739,-1.3725,-1.3855,-1.3855,-1.3943,-1.3944,-1.3945]},{"header":{"parameterUnit":"m.s-1","parameterCategory":1,"la1":30.2991,"la2":30.254,"lo1":-89.0895,"lo2":-89.0444,"dy":0.0017,"dx":0.0017,"nx":28,"ny":28,"refTime":"2024-12-06T09:00:00:Z","depth":0,"parameterNumber":3,"parameterNumberName":"V-component_of_WINDS"},"data":[0,0,0,0,0,0,0,0,0,0,0,0,0,0,0,0,0,0,0,0,0,0,0,0,0,0,0,0,0,0,0,0,0,0,0,0,0,0,0,0,0,0,0,0,0,0,0,0,0,0,0,0,0,0,0,0,0,0,-5.8661,-5.8662,0,-5.8763,-5.8765,-5.8766,-5.8684,-5.868,-5.8677,-5.8673,-5.8773,-5.8779,-5.8785,0,0,0,0,0,0,0,0,0,0,0,0,0,-5.8388,-5.8393,-5.8661,-5.8662,-5.8663,-5.8763,-5.8765,-5.8766,-5.8684,-5.868,-5.8676,-5.8672,-5.8771,-5.8778,-5.8786,0,0,0,0,0,0,0,0,0,0,0,0,0,-5.85,-5.8395,-5.8661,-5.8635,-5.8633,-5.8763,-5.8765,-5.8766,-5.8685,-5.868,-5.8675,-5.867,-5.8769,-5.8778,-5.8786,-5.8946,0,0,-5.8814,-5.8817,0,0,0,0,0,0,0,0,-5.8494,-5.851,-5.8637,-5.8637,-5.8635,-5.8706,-5.8705,-5.8826,-5.8686,-5.8665,-5.8673,-5.8667,-5.8755,-5.8764,-5.8795,-5.895,-5.8954,-5.8814,-5.882,-5.8824,-5.8826,0,0,0,0,0,0,0,-5.8486,-5.8505,-5.8701,-5.8639,-5.8638,-5.8616,-5.8626,-5.8728,-5.8738,-5.8667,-5.8661,-5.8675,-5.8753,-5.8787,-5.8797,-5.8956,-5.8814,-5.8822,-5.8827,-5.8831,-5.9245,-5.925,0,0,0,0,0,0,-5.8482,-5.8499,-5.8698,-5.8704,-5.855,-5.8625,-5.8636,-5.8688,-5.8737,-5.8739,-5.8679,-5.867,-5.8774,-5.8786,-5.88,-5.8988,-5.8823,-5.8832,-5.8837,-5.9239,-5.9246,-5.9252,0,0,0,0,0,0,-5.8476,-5.85,-5.8694,-5.86,-5.8623,-5.8635,-5.8694,-5.8693,-5.8726,-5.8746,-5.8747,-5.8712,-5.877,-5.8787,-5.891,-5.8991,-5.8836,-5.8844,-5.9232,-5.9241,-5.9249,-5.9367,0,0,0,0,0,0,-5.8469,-5.8499,-5.8561,-5.8602,-5.8629,-5.8804,-5.8699,-5.8699,-5.8743,-5.8732,-5.8777,-5.8779,-5.8768,-5.8897,-5.8919,-5.9,-5.8851,-5.9225,-5.9236,-5.9246,-5.9356,-5.9379,-5.9398,0,0,0,0,0,-5.8459,-5.8589,-5.8564,-5.8589,-5.8707,-5.8809,-5.8824,-5.881,-5.8749,-5.8811,-5.8823,-5.8778,-5.8978,-5.891,-5.8934,-5.9019,-5.922,-5.9233,-5.9246,-5.9347,-5.9374,-5.9398,0,0,0,0,0,0,-5.8555,-5.8594,-5.8567,-5.8715,-5.876,-5.8795,-5.8872,-5.8839,-5.8901,-5.8889,-5.8866,-5.8877,-5.9006,-5.9024,-5.8948,-5.9175,-5.9089,-5.9107,-5.9158,-5.9184,-5.9205,-5.9197,-5.8858,0,0,0,0,0,-5.8594,-5.8675,-5.8704,-5.8832,-5.8856,-5.8861,-5.8904,-5.889,-5.8934,-5.8952,-5.8973,-5.9017,-5.909,-5.9138,-5.9206,-5.9358,-5.9366,-5.9428,-5.9449,-5.9466,-5.9482,-5.9563,-5.959,-5.9294,-5.9294,-5.9294,0,0,-5.8674,-5.8705,-5.8758,-5.8852,-5.8885,-5.8968,-5.8877,-5.8969,-5.903,-5.8966,-5.9083,-5.91,-5.9147,-5.9285,-5.9347,-5.9304,-5.9566,-5.9483,-5.9496,-5.9503,-5.9579,-5.9607,-5.9632,-5.9303,-5.9301,-5.93,0,0,-5.8862,-5.8895,-5.9004,-5.9039,-5.909,-5.9093,-5.9119,-5.916,-5.9169,-5.9287,-5.924,-5.9311,-5.9437,-5.9472,-5.9507,-5.9708,-5.9668,-5.973,-5.9839,-5.9918,-5.9941,-5.9962,-6.0033,-6.0058,-5.9746,-5.9746,-5.9746,0,-5.8954,-5.908,-5.9064,-5.916,-5.9202,-5.9149,-5.9258,-5.9292,-5.9363,-5.9392,-5.9344,-5.95,-5.9528,-5.9673,-5.9722,-5.9752,-5.978,-5.9725,-5.994,-5.996,-5.9979,-6.0046,-6.0073,-5.9753,-5.9753,-5.9752,-5.9751,0,-5.919,-5.9278,-5.936,-5.9431,-5.9482,-5.9584,-5.9581,-5.9635,-5.9615,-5.9622,-5.9741,-5.9773,-5.9846,-5.9879,-5.986,-6.0021,-5.9993,-5.9943,-5.9857,-6.0015,-6.0077,-6.0103,-5.9764,-5.9761,-5.9759,-5.9757,0,0,-5.9442,-5.9503,-5.9534,-5.9565,-5.9617,-5.9683,-5.9782,-5.9855,-5.9901,-5.9951,-6.0032,-6.0139,-6.0093,-6.0132,-6.0117,-6.0186,-6.0342,-6.0127,-6.0128,-6.0165,-6.0519,-6.0556,-6.0586,-6.0316,-6.032,-6.0324,-6.0515,0,-5.9633,-5.9807,-5.9795,-5.9958,-6.0037,-5.9988,-6.0073,-6.0114,-6.0122,-6.019,-6.0198,-6.0274,-6.0208,-6.0231,-6.0298,-6.0309,-6.0412,-6.0295,-6.0389,-6.0393,-6.0379,-6.0619,-6.0659,-6.0837,-6.0539,-6.0543,-6.0546,0,-5.9878,-5.9938,-6.011,-6.015,-6.0182,-6.026,-6.0325,-6.0391,-6.0435,-6.0436,-6.048,-6.0452,-6.0549,-6.0461,-6.0594,-6.0515,-6.0552,-6.0563,-6.057,-6.0577,-6.0479,-6.0633,-6.0894,-6.092,-6.0585,-6.0582,-6.0579,0,-6.0044,-6.0167,-6.0286,-6.0314,-6.0363,-6.0419,-6.0442,-6.0481,-6.0525,-6.0581,-6.0609,-6.0676,-6.0712,-6.0763,-6.0754,-6.069,-6.0889,-6.08,-6.0891,-6.0891,-6.0934,-6.0932,-6.1205,-6.096,-6.0959,-6.0959,-6.0958,0,-6.0257,-6.0364,-6.0361,-6.0433,-6.0551,-6.0535,-6.0651,-6.0667,-6.0702,-6.0775,-6.0735,-6.0805,-6.0788,-6.0857,-6.085,-6.096,-6.0977,-6.0979,-6.0976,-6.0982,-6.0982,-6.1006,-6.0993,-6.0966,-6.0964,-6.0963,-6.0962,0,-6.0462,-6.0464,-6.059,-6.0627,-6.0638,-6.0723,-6.0753,-6.0821,-6.0826,-6.092,-6.094,-6.0948,-6.1026,-6.1022,-6.111,-6.1105,-6.1241,-6.1223,-6.1227,-6.1223,-6.1314,-6.1305,-6.1611,-6.165,-6.1381,-6.1384,-6.1386,0,-6.0598,-6.0679,-6.0725,-6.0772,-6.0799,-6.0875,-6.092,-6.0907,-6.0955,-6.1011,-6.1072,-6.1147,-6.1206,-6.1333,-6.1345,-6.1412,-6.1395,-6.1498,-6.1404,-6.1408,-6.1395,-6.139,-6.1398,-6.1516,-6.1519,-6.1521,-6.1523,0,-6.0838,-6.0835,-6.0903,-6.0972,-6.1027,-6.108,-6.1128,-6.1168,-6.116,-6.1216,-6.1296,-6.1342,-6.1433,-6.1507,-6.157,-6.1591,-6.1556,-6.1553,-6.1577,-6.1584,-6.1583,-6.1584,-6.1276,-6.1545,-6.1543,-6.1542,-6.154,-6.1539,-6.1012,-6.1081,-6.1125,-6.1201,-6.1236,-6.1282,-6.1347,-6.1361,-6.1428,-6.1502,-6.1489,-6.1579,-6.1619,-6.1701,-6.1728,-6.1797,-6.176,-6.1795,-6.1804,-6.1813,-6.1823,-6.1573,-6.1808,-6.1807,-6.1807,-6.1806,-6.1806,0,-6.125,-6.1275,-6.1346,-6.1415,-6.1475,-6.1438,-6.1489,-6.1541,-6.1621,-6.1662,-6.1721,-6.1813,-6.1884,-6.1902,-6.1971,-6.2022,-6.2007,-6.204,-6.2036,-6.2041,-6.1853,-6.1824,-6.2051,-6.2051,-6.2051,-6.2051,-6.2051,-6.2051,-6.1381,-6.1496,-6.1498,-6.1629,-6.1653,-6.1742,-6.1774,-6.1816,-6.1848,-6.1953,-6.2013,-6.2025,-6.2056,-6.2126,-6.2189,-6.2192,-6.2219,-6.2259,-6.2255,-6.2079,-6.2054,-6.2031,-6.2004,-6.2265,-6.2265,-6.2437,-6.2439,-6.244]}]]